This demonstration page uses our WeatherBlox Daily Observations layout. Learn more.

Left ArrowRight Arrow

Hourly Observations for October 8, 2020

Temp ( °F °C ) Dew Point ( °F °C ) Humidity (%) Winds ( mph kmh ) Pressure ( in mb ) Visibility ( mi km ) Precip ( " mm )
12:53 am 00:53 Clear 59 15 41 5 51 51 ENE 8 13 30.04 1017 10 16 0.00 0.00
1:53 am 01:53 Clear 58 14.4 41 5 53 53 E 8 13 30.04 1017 10 16 0.00 0.00
2:53 am 02:53 Clear 56 13.3 41 5 57 57 E 7 11 30.04 1017 10 16 0.00 0.00
3:53 am 03:53 Clear 54 12.2 41 5 62 62 ENE 6 9 30.03 1017 10 16 0.00 0.00
4:53 am 04:53 Clear 56 13.3 43 6.1 62 62 E 10 17 30.02 1017 10 16 0.00 0.00
5:53 am 05:53 Clear 58 14.4 45 7.2 62 62 E 12 19 30.01 1016 10 16 0.00 0.00
6:53 am 06:53 Clear 58 14.4 45 7.2 62 62 ESE 17 28 30.02 1017 10 16 0.00 0.00
7:53 am 07:53 Sunny 57 13.9 45 7.2 64 64 ESE 14 22 30.02 1017 10 16 0.00 0.00
8:53 am 08:53 Sunny 58 14.4 45 7.2 62 62 ESE 15 24 30.03 1017 10 16 0.00 0.00
9:53 am 09:53 Sunny 61 16.1 48 8.9 63 63 SE 13 20 30.03 1017 10 16 0.00 0.00
10:53 am 10:53 Sunny 67 19.4 51 10.6 57 57 SSE 10 17 30.02 1017 10 16 0.00 0.00
11:53 am 11:53 Sunny 72 22.2 54 12.2 53 53 SSE 14 22 29.99 1016 10 16 0.00 0.00
12:53 pm 12:53 Sunny 77 25 56 13.3 48 48 SSE 14 22 29.96 1015 10 16 0.00 0.00
1:53 pm 13:53 Sunny with Light Rain 82 27.8 55 12.8 40 40 SSE 18 30 29.92 1013 10 16 0.00 0.00
2:53 pm 14:53 Sunny with Light Rain 84 28.9 53 11.7 34 34 S 15 24 29.88 1012 10 16 0.00 0.00
3:53 pm 15:53 Sunny with Light Rain 85 29.4 49 9.4 29 29 S 21 33 29.86 1011 10 16 0.00 0.00
4:53 pm 16:53 Sunny with Light Rain 85 29.4 53 11.7 33 33 SSE 16 26 29.84 1011 10 16 0.00 0.00
5:53 pm 17:53 Sunny with Light Rain 83 28.3 51 10.6 33 33 S 15 24 29.83 1010 10 16 0.00 0.00
6:53 pm 18:53 Sunny with Light Rain 80 26.7 50 10 35 35 S 13 20 29.83 1010 10 16 0.00 0.00
7:53 pm 19:53 Clear with Light Rain 77 25 50 10 39 39 SSE 13 20 29.83 1010 10 16 0.00 0.00
8:53 pm 20:53 Clear 73 22.8 49 9.4 43 43 S 10 17 29.84 1010 10 16 0.00 0.00
9:53 pm 21:53 Clear 71 21.7 50 10 47 47 S 10 17 29.84 1010 10 16 0.00 0.00
10:53 pm 22:53 Clear 69 20.6 51 10.6 53 53 S 10 17 29.83 1010 10 16 0.00 0.00
11:53 pm 23:53 Clear 69 20.6 52 11.1 55 55 S 10 17 29.82 1010 10 16 0.00 0.00

Powered by AerisWeather